Location: Cheny Ridge Estates
(40.6074°N, 111.8785°W)
Time: 04:18:45
(UTC+00:00)

ISS - Pass Details

Date: 05 March 2021
Orbit: 418 x 422 km, 51.6° (Epoch: 16 April)

Event Time Altitude Azimuth Distance (km) Brightness Sun altitude
Exits shadow 11:37:56 12° 16° (NNE) 1,398 -0.8 -26.6°
Drops below altitude 10° 11:38:38 10° 28° (NNE) 1,500 -0.4 -26.4°
Sets 11:41:50 0° 60° (ENE) 2,402 1.3 -25.8°
